Regional Weather Roundup
Issued by NWS

Home | Current Version | Previous Version | Text Only | Print | Product List | Glossary On
Versions: 1 2 3 4 5 6 7 8 9 10 11 12 13 14 15 16 17 18 19 20 21 22 23 24 25 26 27 28 29 30 31 32 33 34 35 36 37 38 39 40 41 42 43 44 45 46 47 48 49 50
000
ASUS44 KFWD 221401
RWRTX
NORTH TEXAS HOURLY WEATHER ROUNDUP
NATIONAL WEATHER SERVICE FORT WORTH TX
900 AM CDT MON MAY 22 2017

NOTE: "FAIR" INDICATES FEW OR NO CLOUDS BELOW 12,000 FEET WITH NO
SIGNIFICANT WEATHER AND/OR OBSTRUCTIONS TO VISIBILITY.

TXZ118-119-221500-
DALLAS/FORT WORTH METROPLEX

CITY           SKY/WX    TMP DP  RH WIND       PRES   REMARKS
DFW AIRPORT    CLOUDY    67  61  81 E7        30.07S
DALLAS LOVE    CLOUDY    67  59  75 E12       30.08R
FTW MEACHAM    CLOUDY    65  59  81 E7        30.08S
DAL-EXECUTIVE  CLOUDY    65  60  84 E8        30.07S
FTW-ALLIANCE   CLOUDY    65  60  84 E6        30.08S
FTW-NAS-JRB    PTSUNNY   65  58  78 SE5       30.09R
FTW-SPINKS     MOSUNNY   64  59  82 E7        30.10R
ARLINGTON      CLOUDY    65  58  78 E7        30.08S
GRAND PRAIRIE  SUNNY     64  55  72 E7        30.10R
ADDISON        SUNNY     66  59  77 E8        30.09R
MESQUITE       PTSUNNY   64  64 100 E6        30.09R
LANCASTER      CLOUDY    64  61  88 E7        30.09R
$$

TXZ091>094-102>105-117-120-121-131>134-221500-
NORTH CENTRAL TEXAS

CITY           SKY/WX    TMP DP  RH WIND       PRES   REMARKS
SHRMAN/DENISON NOT AVBL
GAINESVILLE    SUNNY     67  57  71 S10       30.11R
BOWIE          MOSUNNY   66  59  76 S6        30.11R
BRIDGEPORT     CLOUDY    65  58  80 SE10      30.11R
DECATUR        CLOUDY    65  56  71 SE9       30.10R
DENTON         CLOUDY    65  61  87 SE8       30.09S
MCKINNEY       PTSUNNY   65  60  84 SE8       30.10R
BONHAM         CLOUDY    66  55  68 SE12      30.11S
ROCKWALL       MOSUNNY   66  61  84 E7        30.08S
TERRELL        CLOUDY    66  59  78 E8        30.08R
WAXAHACHIE     CLOUDY    62  62  98 NE5       30.09S
CLEBURNE       CLOUDY    63  63 100 E10       30.08F
GRANBURY       CLOUDY    65  59  81 NE5       30.10R
$$

TXZ083>090-098>101-113>116-127>130-139>142-154-155-221500-
WESTERN NORTH TEXAS

CITY           SKY/WX    TMP DP  RH WIND       PRES   REMARKS
WICHITA FALLS  PTSUNNY   62  56  80 S5        30.11R
WF-KICKAPOO    PTSUNNY   65  56  74 S9        30.13R
VERNON         CLOUDY    62  54  75 W6        30.15R
ABILENE        CLOUDY    59  58  96 S10       30.09S
ABILENE-DYESS  CLOUDY    61  59  94 SE7       30.07S
CISCO          PTSUNNY   61  57  88 S6        30.09S
EASTLAND       CLOUDY    60  56  84 S6        30.09S
MINERAL WELLS  CLOUDY    63  58  83 SE9       30.08R
STEPHENVILLE   CLOUDY    60  56  88 CALM      30.12R
COMANCHE       CLOUDY    60  60  99 E7        30.09S
COLEMAN        CLOUDY    59  58  96 CALM      30.09R FOG
$$

TXZ143>147-156>162-174-175-221500-
CENTRAL TEXAS

CITY           SKY/WX    TMP DP  RH WIND       PRES   REMARKS
WACO           CLOUDY    63  61  93 N6        30.05S
WACO-MCGREGOR  CLOUDY    62  61  96 N6        30.06R
HILLSBORO      CLOUDY    64  61  91 NE5       30.07R
CORSICANA      CLOUDY    66  61  84 NE9       30.07R
MEXIA          CLOUDY    63  60  90 E7        30.04R
HEARNE         RAIN      63  63 100 NE7       30.03F
TEMPLE         LGT RAIN  64  62  93 NE9       30.04S
KILLEEN        CLOUDY    60  59  95 NE6       30.04S
KILLEEN-SKYLRK CLOUDY    62  60  93 NE6       30.05S
HAMILTON       CLOUDY    60  60 100 NE6       30.08S
LAMPASAS       CLOUDY    60  58  90 NE7       30.05R
$$

TXZ095>097-106>112-122>126-135>138-148>153-164>167-221500-
EAST TEXAS

CITY           SKY/WX    TMP DP  RH WIND       PRES   REMARKS
PARIS          SUNNY     70  55  60 SE13      30.10S
GILMER         DRIZZLE   62  60  93 E8        30.07S
MINEOLA        CLOUDY    63  61  94 SE5       30.08R
TYLER          LGT RAIN  63  60  90 E7        30.06R
LONGVIEW       LGT RAIN  62  60  93 E10       30.07S
MARSHALL       CLOUDY    61  58  91 CALM      30.10R
ATHENS         CLOUDY    63  63 100 E5        30.05R
PALESTINE      CLOUDY    63  62  99 E9        30.04F
JACKSONVILLE   LGT RAIN  61  61 100 E10       30.07F
CENTER         HVY RAIN  64  63  96 N12       30.09S
NACOGDOCHES    CLOUDY    61  57  88 E6        30.04F
LUFKIN         HVY RAIN  62  60  93 NE14G25   30.03S FOG
$$

SUPPLEMENTAL OBSERVATIONS (NWS FORT WORTH AREA)

CITY           SKY/WX    TMP DP  RH WIND       PRES   REMARKS
$$

SUPPLEMENTAL OBSERVATIONS (NWS NORMAN AREA)

CITY           SKY/WX    TMP DP  RH WIND       PRES   REMARKS
GOODLETT         N/A     60  52  76 W5        30.14S
ODELL            N/A     62  56  83 SW5       30.16R
CROWELL          N/A     62  55  79 W6        30.15R
KNOX CITY        N/A     62  54  74 W5        30.14R
SEYMOUR          N/A     63  55  75 S2        30.14R
$$

SUPPLEMENTAL OBSERVATIONS (NWS SAN ANGELO AREA)

CITY           SKY/WX    TMP DP  RH WIND       PRES   REMARKS
WEINERT          N/A     62  55  80 NW5       30.14R
HASKELL          N/A     61  55  79 SW3       30.12R
THROCKMORTON     N/A     62  56  79 SE6       30.12R
STAMFORD         N/A     62  57  86 NW2       30.12R
CLYDE            N/A     59  57  93 SE8       30.10S
$$

SUPPLEMENTAL OBSERVATIONS (NWS SHREVEPORT AREA)

CITY           SKY/WX    TMP DP  RH WIND       PRES   REMARKS
$$

SUPPLEMENTAL OBSERVATIONS ARE A COLLECTION OF AUTOMATED INSTRUMENTS
THAT ARE MAINTAINED BY A VARIETY OF FEDERAL AND STATE AGENCIES.
CERTAIN ELEMENTS...SUCH AS HUMIDITY VALUES AND SUSTAINED WIND
SPEEDS...MAY BE APPROXIMATED.




USA.gov is the U.S. government's official web portal to all federal, state and local government web resources and services.